Time,TemperatureF,DewpointF,PressureIn,WindDirection,WindDirectionDegrees,WindSpeedMPH,WindSpeedGustMPH,Humidity,HourlyPrecipIn,Conditions,Clouds,dailyrainin,SoftwareType,DateUTC
2013-11-16 00:01:00,31.8,25.4,30.18,South,178,0.0,0.0,77,0.00,,,0.00,WUHU216DAVISVP2,2013-11-16 05:01:00,
2013-11-16 00:06:00,31.8,25.7,30.18,South,178,0.0,0.0,78,0.00,,,0.00,WUHU216DAVISVP2,2013-11-16 05:06:00,
2013-11-16 00:11:00,32.0,25.9,30.18,South,178,0.0,0.0,78,0.00,,,0.00,WUHU216DAVISVP2,2013-11-16 05:11:00,
2013-11-16 00:16:00,32.1,26.0,30.17,South,178,0.0,0.0,78,0.00,,,0.00,WUHU216DAVISVP2,2013-11-16 05:16:00,
2013-11-16 00:21:00,32.1,25.7,30.17,South,178,0.0,0.0,77,0.00,,,0.00,WUHU216DAVISVP2,2013-11-16 05:21:00,
2013-11-16 00:26:00,32.0,25.6,30.17,South,178,0.0,0.0,77,0.00,,,0.00,WUHU216DAVISVP2,2013-11-16 05:26:00,
2013-11-16 00:31:00,31.9,25.8,30.17,South,178,0.0,0.0,78,0.00,,,0.00,WUHU216DAVISVP2,2013-11-16 05:31:00,
2013-11-16 00:36:00,32.0,26.2,30.18,South,178,0.0,0.0,79,0.00,,,0.00,WUHU216DAVISVP2,2013-11-16 05:36:00,
2013-11-16 00:41:00,32.1,26.3,30.18,South,178,0.0,0.0,79,0.00,,,0.00,WUHU216DAVISVP2,2013-11-16 05:41:00,
2013-11-16 00:46:00,32.1,26.3,30.18,South,178,0.0,0.0,79,0.00,,,0.00,WUHU216DAVISVP2,2013-11-16 05:46:00,
2013-11-16 00:51:00,32.1,26.3,30.18,South,178,0.0,0.0,79,0.00,,,0.00,WUHU216DAVISVP2,2013-11-16 05:51:00,
2013-11-16 00:56:00,32.1,26.3,30.19,South,178,0.0,0.0,79,0.00,,,0.00,WUHU216DAVISVP2,2013-11-16 05:56:00,
2013-11-16 01:01:00,32.0,25.9,30.19,South,178,0.0,0.0,78,0.00,,,0.00,WUHU216DAVISVP2,2013-11-16 06:01:00,
2013-11-16 01:06:00,31.9,25.8,30.19,South,178,0.0,0.0,78,0.00,,,0.00,WUHU216DAVISVP2,2013-11-16 06:06:00,
2013-11-16 01:11:00,31.8,25.7,30.19,South,178,0.0,0.0,78,0.00,,,0.00,WUHU216DAVISVP2,2013-11-16 06:11:00,
2013-11-16 01:16:00,31.8,25.7,30.19,South,178,0.0,0.0,78,0.00,,,0.00,WUHU216DAVISVP2,2013-11-16 06:16:00,
2013-11-16 01:21:00,31.7,25.6,30.19,South,178,0.0,0.0,78,0.00,,,0.00,WUHU216DAVISVP2,2013-11-16 06:21:00,
2013-11-16 01:26:00,31.6,25.5,30.19,South,178,0.0,0.0,78,0.00,,,0.00,WUHU216DAVISVP2,2013-11-16 06:26:00,
2013-11-16 01:31:00,31.5,25.8,30.19,South,178,0.0,0.0,79,0.00,,,0.00,WUHU216DAVISVP2,2013-11-16 06:31:00,
2013-11-16 01:36:00,31.5,25.8,30.19,South,178,0.0,0.0,79,0.00,,,0.00,WUHU216DAVISVP2,2013-11-16 06:36:00,
2013-11-16 01:41:00,31.5,25.8,30.18,South,178,0.0,0.0,79,0.00,,,0.00,WUHU216DAVISVP2,2013-11-16 06:41:00,
2013-11-16 01:46:00,31.4,25.7,30.18,South,178,0.0,0.0,79,0.00,,,0.00,WUHU216DAVISVP2,2013-11-16 06:46:00,
2013-11-16 01:51:00,31.3,25.6,30.19,South,178,0.0,0.0,79,0.00,,,0.00,WUHU216DAVISVP2,2013-11-16 06:51:00,
2013-11-16 01:56:00,31.4,25.7,30.19,South,178,0.0,0.0,79,0.00,,,0.00,WUHU216DAVISVP2,2013-11-16 06:56:00,
2013-11-16 02:01:00,31.4,26.0,30.19,South,178,0.0,0.0,80,0.00,,,0.00,WUHU216DAVISVP2,2013-11-16 07:01:00,
2013-11-16 02:06:00,31.4,25.7,30.19,South,178,0.0,0.0,79,0.00,,,0.00,WUHU216DAVISVP2,2013-11-16 07:06:00,
2013-11-16 02:11:00,31.4,26.0,30.19,South,178,0.0,0.0,80,0.00,,,0.00,WUHU216DAVISVP2,2013-11-16 07:11:00,
2013-11-16 02:16:00,31.4,26.0,30.19,South,178,0.0,0.0,80,0.00,,,0.00,WUHU216DAVISVP2,2013-11-16 07:16:00,
2013-11-16 02:21:00,31.4,26.2,30.19,South,178,0.0,0.0,81,0.00,,,0.00,WUHU216DAVISVP2,2013-11-16 07:21:00,
2013-11-16 02:26:00,31.3,25.9,30.19,South,178,0.0,0.0,80,0.00,,,0.00,WUHU216DAVISVP2,2013-11-16 07:26:00,
2013-11-16 02:31:00,31.1,25.7,30.19,South,178,0.0,0.0,80,0.00,,,0.00,WUHU216DAVISVP2,2013-11-16 07:31:00,
2013-11-16 02:36:00,31.0,25.6,30.19,South,178,0.0,0.0,80,0.00,,,0.00,WUHU216DAVISVP2,2013-11-16 07:36:00,
2013-11-16 02:41:00,30.9,25.5,30.19,South,178,0.0,0.0,80,0.00,,,0.00,WUHU216DAVISVP2,2013-11-16 07:41:00,
2013-11-16 02:46:00,30.8,25.4,30.19,South,178,0.0,0.0,80,0.00,,,0.00,WUHU216DAVISVP2,2013-11-16 07:46:00,
2013-11-16 02:51:00,30.8,25.4,30.19,South,178,0.0,0.0,80,0.00,,,0.00,WUHU216DAVISVP2,2013-11-16 07:51:00,
2013-11-16 02:56:00,30.7,25.3,30.20,South,178,0.0,0.0,80,0.00,,,0.00,WUHU216DAVISVP2,2013-11-16 07:56:00,
2013-11-16 03:01:00,30.7,25.3,30.20,South,178,0.0,0.0,80,0.00,,,0.00,WUHU216DAVISVP2,2013-11-16 08:01:00,
2013-11-16 03:06:00,30.8,25.4,30.20,South,178,0.0,0.0,80,0.00,,,0.00,WUHU216DAVISVP2,2013-11-16 08:06:00,
2013-11-16 03:11:00,30.7,25.3,30.21,South,178,0.0,0.0,80,0.00,,,0.00,WUHU216DAVISVP2,2013-11-16 08:11:00,
2013-11-16 03:16:00,30.8,25.7,30.21,South,178,0.0,0.0,81,0.00,,,0.00,WUHU216DAVISVP2,2013-11-16 08:16:00,
2013-11-16 03:21:00,30.9,25.8,30.21,South,178,0.0,0.0,81,0.00,,,0.00,WUHU216DAVISVP2,2013-11-16 08:21:00,
2013-11-16 03:26:00,31.0,25.9,30.23,South,178,0.0,0.0,81,0.00,,,0.00,WUHU216DAVISVP2,2013-11-16 08:26:00,
2013-11-16 03:31:00,31.1,26.2,30.23,South,178,0.0,0.0,82,0.00,,,0.00,WUHU216DAVISVP2,2013-11-16 08:31:00,
2013-11-16 03:36:00,31.2,26.0,30.22,South,178,0.0,0.0,81,0.00,,,0.00,WUHU216DAVISVP2,2013-11-16 08:36:00,
2013-11-16 03:41:00,31.2,26.0,30.23,South,178,0.0,0.0,81,0.00,,,0.00,WUHU216DAVISVP2,2013-11-16 08:41:00,
2013-11-16 03:46:00,31.1,26.2,30.24,South,178,0.0,0.0,82,0.00,,,0.00,WUHU216DAVISVP2,2013-11-16 08:46:00,
2013-11-16 03:51:00,31.1,26.2,30.23,South,178,0.0,0.0,82,0.00,,,0.00,WUHU216DAVISVP2,2013-11-16 08:51:00,
2013-11-16 03:56:00,30.9,26.0,30.25,South,178,0.0,1.0,82,0.00,,,0.00,WUHU216DAVISVP2,2013-11-16 08:56:00,
2013-11-16 04:01:00,30.8,26.2,30.24,South,178,0.0,1.0,83,0.00,,,0.00,WUHU216DAVISVP2,2013-11-16 09:01:00,
2013-11-16 04:06:00,30.8,25.9,30.24,South,178,0.0,1.0,82,0.00,,,0.00,WUHU216DAVISVP2,2013-11-16 09:06:00,
2013-11-16 04:11:00,30.7,25.8,30.23,South,178,0.0,1.0,82,0.00,,,0.00,WUHU216DAVISVP2,2013-11-16 09:11:00,
2013-11-16 04:16:00,30.7,25.8,30.23,South,178,0.0,0.0,82,0.00,,,0.00,WUHU216DAVISVP2,2013-11-16 09:16:00,
2013-11-16 04:21:00,30.7,26.1,30.23,South,178,0.0,0.0,83,0.00,,,0.00,WUHU216DAVISVP2,2013-11-16 09:21:00,
2013-11-16 04:26:00,30.7,26.1,30.22,South,178,0.0,0.0,83,0.00,,,0.00,WUHU216DAVISVP2,2013-11-16 09:26:00,
2013-11-16 04:31:00,30.8,26.2,30.23,South,178,0.0,0.0,83,0.00,,,0.00,WUHU216DAVISVP2,2013-11-16 09:31:00,
2013-11-16 04:36:00,30.9,26.3,30.22,South,178,0.0,0.0,83,0.00,,,0.00,WUHU216DAVISVP2,2013-11-16 09:36:00,
2013-11-16 04:41:00,31.1,26.5,30.22,South,178,0.0,1.0,83,0.00,,,0.00,WUHU216DAVISVP2,2013-11-16 09:41:00,
2013-11-16 04:46:00,31.3,26.7,30.23,South,178,0.0,1.0,83,0.00,,,0.00,WUHU216DAVISVP2,2013-11-16 09:46:00,
2013-11-16 04:51:00,31.3,27.0,30.23,South,178,0.0,1.0,84,0.00,,,0.00,WUHU216DAVISVP2,2013-11-16 09:51:00,
2013-11-16 04:56:00,31.4,27.1,30.22,South,178,0.0,0.0,84,0.00,,,0.00,WUHU216DAVISVP2,2013-11-16 09:56:00,
2013-11-16 05:01:00,31.5,27.2,30.22,South,178,0.0,0.0,84,0.00,,,0.00,WUHU216DAVISVP2,2013-11-16 10:01:00,
2013-11-16 05:06:00,31.7,27.7,30.22,South,178,0.0,2.0,85,0.00,,,0.00,WUHU216DAVISVP2,2013-11-16 10:06:00,
2013-11-16 05:11:00,31.8,27.8,30.24,South,178,1.0,3.0,85,0.00,,,0.00,WUHU216DAVISVP2,2013-11-16 10:11:00,
2013-11-16 05:16:00,31.9,27.6,30.23,South,178,0.0,3.0,84,0.00,,,0.00,WUHU216DAVISVP2,2013-11-16 10:16:00,
2013-11-16 05:21:00,32.1,27.5,30.23,South,178,0.0,3.0,83,0.00,,,0.00,WUHU216DAVISVP2,2013-11-16 10:21:00,
2013-11-16 05:26:00,32.2,27.6,30.24,South,178,0.0,3.0,83,0.00,,,0.00,WUHU216DAVISVP2,2013-11-16 10:26:00,
2013-11-16 05:31:00,32.3,27.7,30.24,South,178,0.0,1.0,83,0.00,,,0.00,WUHU216DAVISVP2,2013-11-16 10:31:00,
2013-11-16 05:36:00,32.4,27.8,30.24,South,178,0.0,1.0,83,0.00,,,0.00,WUHU216DAVISVP2,2013-11-16 10:36:00,
2013-11-16 05:41:00,32.4,27.8,30.25,South,178,0.0,0.0,83,0.00,,,0.00,WUHU216DAVISVP2,2013-11-16 10:41:00,
2013-11-16 05:46:00,32.5,27.6,30.24,South,178,0.0,0.0,82,0.00,,,0.00,WUHU216DAVISVP2,2013-11-16 10:46:00,
2013-11-16 05:51:00,32.6,27.7,30.25,South,178,0.0,0.0,82,0.00,,,0.00,WUHU216DAVISVP2,2013-11-16 10:51:00,
2013-11-16 05:56:00,32.8,27.6,30.24,South,178,0.0,0.0,81,0.00,,,0.00,WUHU216DAVISVP2,2013-11-16 10:56:00,
2013-11-16 06:01:00,32.9,27.7,30.25,South,178,0.0,0.0,81,0.00,,,0.00,WUHU216DAVISVP2,2013-11-16 11:01:00,
2013-11-16 06:06:00,33.0,27.8,30.24,South,178,0.0,0.0,81,0.00,,,0.00,WUHU216DAVISVP2,2013-11-16 11:06:00,
2013-11-16 06:11:00,33.1,27.6,30.24,South,178,0.0,0.0,80,0.00,,,0.00,WUHU216DAVISVP2,2013-11-16 11:11:00,
2013-11-16 06:16:00,33.1,27.9,30.24,South,178,0.0,0.0,81,0.00,,,0.00,WUHU216DAVISVP2,2013-11-16 11:16:00,
2013-11-16 06:21:00,33.2,28.0,30.24,South,178,0.0,0.0,81,0.00,,,0.00,WUHU216DAVISVP2,2013-11-16 11:21:00,
2013-11-16 06:26:00,33.2,28.3,30.24,South,178,0.0,0.0,82,0.00,,,0.00,WUHU216DAVISVP2,2013-11-16 11:26:00,
2013-11-16 06:31:00,33.2,28.3,30.24,South,178,1.0,2.0,82,0.00,,,0.00,WUHU216DAVISVP2,2013-11-16 11:31:00,
2013-11-16 06:36:00,33.2,28.3,30.24,South,178,0.0,2.0,82,0.00,,,0.00,WUHU216DAVISVP2,2013-11-16 11:36:00,
2013-11-16 06:41:00,33.3,28.4,30.24,South,178,0.0,2.0,82,0.00,,,0.00,WUHU216DAVISVP2,2013-11-16 11:41:00,
2013-11-16 06:46:00,33.3,28.4,30.24,South,178,0.0,2.0,82,0.00,,,0.00,WUHU216DAVISVP2,2013-11-16 11:46:00,
2013-11-16 06:51:00,33.4,28.5,30.23,South,178,0.0,0.0,82,0.00,,,0.00,WUHU216DAVISVP2,2013-11-16 11:51:00,
2013-11-16 06:56:00,33.4,28.5,30.24,South,178,0.0,0.0,82,0.00,,,0.00,WUHU216DAVISVP2,2013-11-16 11:56:00,
2013-11-16 07:01:00,33.6,28.7,30.25,South,178,1.0,2.0,82,0.00,,,0.00,WUHU216DAVISVP2,2013-11-16 12:01:00,
2013-11-16 07:06:00,33.7,28.5,30.25,South,178,0.0,2.0,81,0.00,,,0.00,WUHU216DAVISVP2,2013-11-16 12:06:00,
2013-11-16 07:11:00,33.8,28.6,30.26,South,178,0.0,2.0,81,0.00,,,0.00,WUHU216DAVISVP2,2013-11-16 12:11:00,
2013-11-16 07:16:00,34.0,28.5,30.25,South,178,0.0,2.0,80,0.00,,,0.00,WUHU216DAVISVP2,2013-11-16 12:16:00,
2013-11-16 07:21:00,34.1,28.6,30.26,South,178,0.0,1.0,80,0.00,,,0.00,WUHU216DAVISVP2,2013-11-16 12:21:00,
2013-11-16 07:26:00,34.2,28.7,30.26,South,178,0.0,1.0,80,0.00,,,0.00,WUHU216DAVISVP2,2013-11-16 12:26:00,
2013-11-16 07:31:00,34.3,28.8,30.27,South,178,0.0,0.0,80,0.00,,,0.00,WUHU216DAVISVP2,2013-11-16 12:31:00,
2013-11-16 07:36:00,34.5,28.7,30.27,South,178,0.0,0.0,79,0.00,,,0.00,WUHU216DAVISVP2,2013-11-16 12:36:00,
2013-11-16 07:41:00,34.6,28.8,30.26,South,178,0.0,0.0,79,0.00,,,0.00,WUHU216DAVISVP2,2013-11-16 12:41:00,
2013-11-16 07:46:00,34.8,29.0,30.26,South,178,0.0,0.0,79,0.00,,,0.00,WUHU216DAVISVP2,2013-11-16 12:46:00,
2013-11-16 07:51:00,35.0,29.5,30.27,South,178,0.0,0.0,80,0.00,,,0.00,WUHU216DAVISVP2,2013-11-16 12:51:00,
2013-11-16 07:56:00,35.2,29.4,30.27,South,178,0.0,0.0,79,0.00,,,0.00,WUHU216DAVISVP2,2013-11-16 12:56:00,
2013-11-16 08:01:00,35.3,29.5,30.27,South,178,0.0,1.0,79,0.00,,,0.00,WUHU216DAVISVP2,2013-11-16 13:01:00,
2013-11-16 08:06:00,35.5,29.3,30.27,South,178,0.0,1.0,78,0.00,,,0.00,WUHU216DAVISVP2,2013-11-16 13:06:00,
2013-11-16 08:11:00,35.6,29.4,30.27,South,178,0.0,1.0,78,0.00,,,0.00,WUHU216DAVISVP2,2013-11-16 13:11:00,
2013-11-16 08:16:00,35.8,29.3,30.27,South,178,0.0,1.0,77,0.00,,,0.00,WUHU216DAVISVP2,2013-11-16 13:16:00,
2013-11-16 08:21:00,35.9,29.4,30.28,South,178,0.0,0.0,77,0.00,,,0.00,WUHU216DAVISVP2,2013-11-16 13:21:00,
2013-11-16 08:26:00,36.0,29.5,30.28,South,178,0.0,0.0,77,0.00,,,0.00,WUHU216DAVISVP2,2013-11-16 13:26:00,
2013-11-16 08:31:00,36.2,29.7,30.28,South,178,0.0,0.0,77,0.00,,,0.00,WUHU216DAVISVP2,2013-11-16 13:31:00,
2013-11-16 08:36:00,36.4,29.9,30.28,South,178,0.0,0.0,77,0.00,,,0.00,WUHU216DAVISVP2,2013-11-16 13:36:00,
2013-11-16 08:41:00,36.5,30.0,30.29,South,178,0.0,0.0,77,0.00,,,0.00,WUHU216DAVISVP2,2013-11-16 13:41:00,
2013-11-16 08:46:00,36.8,30.3,30.29,South,178,0.0,0.0,77,0.00,,,0.00,WUHU216DAVISVP2,2013-11-16 13:46:00,
2013-11-16 08:51:00,37.0,30.5,30.29,South,178,0.0,1.0,77,0.00,,,0.00,WUHU216DAVISVP2,2013-11-16 13:51:00,
2013-11-16 08:56:00,37.3,30.7,30.29,South,178,0.0,1.0,77,0.00,,,0.00,WUHU216DAVISVP2,2013-11-16 13:56:00,
2013-11-16 09:01:00,37.6,30.8,30.29,South,178,0.0,1.0,76,0.00,,,0.00,WUHU216DAVISVP2,2013-11-16 14:01:00,
2013-11-16 09:06:00,37.8,30.6,30.29,South,178,0.0,1.0,75,0.00,,,0.00,WUHU216DAVISVP2,2013-11-16 14:06:00,
2013-11-16 09:11:00,38.2,30.6,30.29,South,178,0.0,2.0,74,0.00,,,0.00,WUHU216DAVISVP2,2013-11-16 14:11:00,
2013-11-16 09:16:00,38.4,30.6,30.29,South,178,0.0,2.0,73,0.00,,,0.00,WUHU216DAVISVP2,2013-11-16 14:16:00,
2013-11-16 09:21:00,38.6,30.4,30.29,South,178,0.0,2.0,72,0.00,,,0.00,WUHU216DAVISVP2,2013-11-16 14:21:00,
2013-11-16 09:26:00,38.8,30.3,30.29,South,178,0.0,2.0,71,0.00,,,0.00,WUHU216DAVISVP2,2013-11-16 14:26:00,
2013-11-16 09:31:00,39.1,30.8,30.29,South,178,0.0,2.0,72,0.00,,,0.00,WUHU216DAVISVP2,2013-11-16 14:31:00,
2013-11-16 09:36:00,39.5,30.6,30.29,South,178,0.0,1.0,70,0.00,,,0.00,WUHU216DAVISVP2,2013-11-16 14:36:00,
2013-11-16 09:41:00,39.8,30.5,30.29,South,178,0.0,0.0,69,0.00,,,0.00,WUHU216DAVISVP2,2013-11-16 14:41:00,
2013-11-16 09:46:00,40.4,31.1,30.29,South,178,0.0,0.0,69,0.00,,,0.00,WUHU216DAVISVP2,2013-11-16 14:46:00,
2013-11-16 09:51:00,41.0,30.9,30.29,South,178,0.0,1.0,67,0.00,,,0.00,WUHU216DAVISVP2,2013-11-16 14:51:00,
2013-11-16 09:56:00,41.4,31.7,30.29,South,178,0.0,1.0,68,0.00,,,0.00,WUHU216DAVISVP2,2013-11-16 14:56:00,
2013-11-16 10:01:00,41.7,31.9,30.29,South,178,0.0,1.0,68,0.00,,,0.00,WUHU216DAVISVP2,2013-11-16 15:01:00,
2013-11-16 10:07:00,42.0,32.3,30.29,South,178,0.0,1.0,68,0.00,,,0.00,WUHU216DAVISVP2,2013-11-16 15:07:00,
2013-11-16 10:12:00,42.2,31.7,30.29,South,178,0.0,1.0,66,0.00,,,0.00,WUHU216DAVISVP2,2013-11-16 15:12:00,
2013-11-16 10:17:00,42.5,32.7,30.29,South,178,0.0,1.0,68,0.00,,,0.00,WUHU216DAVISVP2,2013-11-16 15:17:00,
2013-11-16 10:22:00,43.0,33.2,30.29,South,178,0.0,1.0,68,0.00,,,0.00,WUHU216DAVISVP2,2013-11-16 15:22:00,
2013-11-16 10:27:00,43.4,32.5,30.29,South,178,0.0,1.0,65,0.00,,,0.00,WUHU216DAVISVP2,2013-11-16 15:27:00,
2013-11-16 10:32:00,43.7,32.8,30.29,South,178,0.0,0.0,65,0.00,,,0.00,WUHU216DAVISVP2,2013-11-16 15:32:00,
2013-11-16 10:37:00,44.3,33.4,30.29,South,178,0.0,0.0,65,0.00,,,0.00,WUHU216DAVISVP2,2013-11-16 15:37:00,
2013-11-16 10:42:00,44.8,33.0,30.29,South,178,0.0,0.0,63,0.00,,,0.00,WUHU216DAVISVP2,2013-11-16 15:42:00,
2013-11-16 10:47:00,45.3,33.4,30.29,South,178,0.0,0.0,63,0.00,,,0.00,WUHU216DAVISVP2,2013-11-16 15:47:00,
2013-11-16 10:52:00,46.1,34.3,30.29,South,178,1.0,2.0,63,0.00,,,0.00,WUHU216DAVISVP2,2013-11-16 15:52:00,
2013-11-16 10:57:00,46.6,33.5,30.28,South,178,0.0,2.0,60,0.00,,,0.00,WUHU216DAVISVP2,2013-11-16 15:57:00,
2013-11-16 11:02:00,47.3,33.3,30.28,South,178,0.0,2.0,58,0.00,,,0.00,WUHU216DAVISVP2,2013-11-16 16:02:00,
2013-11-16 11:10:00,47.9,33.4,30.28,South,178,0.0,2.0,57,0.00,,,0.00,WUHU216DAVISVP2,2013-11-16 16:10:00,
2013-11-16 11:15:00,48.5,33.9,30.28,South,178,0.0,2.0,57,0.00,,,0.00,WUHU216DAVISVP2,2013-11-16 16:15:00,
2013-11-16 11:20:00,49.1,34.1,30.28,South,178,1.0,2.0,56,0.00,,,0.00,WUHU216DAVISVP2,2013-11-16 16:20:00,
2013-11-16 11:25:00,49.9,33.0,30.28,South,178,1.0,3.0,52,0.00,,,0.00,WUHU216DAVISVP2,2013-11-16 16:25:00,
2013-11-16 11:30:00,50.5,32.5,30.28,South,178,0.0,4.0,50,0.00,,,0.00,WUHU216DAVISVP2,2013-11-16 16:30:00,
2013-11-16 11:35:00,50.9,32.9,30.28,South,178,3.0,4.0,50,0.00,,,0.00,WUHU216DAVISVP2,2013-11-16 16:35:00,
2013-11-16 11:40:00,51.5,32.9,30.27,South,178,0.0,4.0,49,0.00,,,0.00,WUHU216DAVISVP2,2013-11-16 16:40:00,
2013-11-16 11:45:00,52.3,33.7,30.27,South,178,0.0,4.0,49,0.00,,,0.00,WUHU216DAVISVP2,2013-11-16 16:45:00,
2013-11-16 11:50:00,53.2,33.4,30.27,South,178,4.0,4.0,47,0.00,,,0.00,WUHU216DAVISVP2,2013-11-16 16:50:00,
2013-11-16 11:55:00,53.7,33.3,30.27,WSW,255,2.0,5.0,46,0.00,,,0.00,WUHU216DAVISVP2,2013-11-16 16:55:00,
2013-11-16 12:00:00,54.6,33.6,30.26,West,260,3.0,5.0,45,0.00,,,0.00,WUHU216DAVISVP2,2013-11-16 17:00:00,
2013-11-16 12:05:00,55.2,33.5,30.26,West,265,0.0,5.0,44,0.00,,,0.00,WUHU216DAVISVP2,2013-11-16 17:05:00,
2013-11-16 12:10:00,55.9,34.8,30.26,West,265,0.0,4.0,45,0.00,,,0.00,WUHU216DAVISVP2,2013-11-16 17:10:00,
2013-11-16 12:15:00,56.8,33.8,30.25,West,275,0.0,4.0,42,0.00,,,0.00,WUHU216DAVISVP2,2013-11-16 17:15:00,
2013-11-16 12:20:00,57.5,31.9,30.26,West,275,1.0,4.0,38,0.00,,,0.00,WUHU216DAVISVP2,2013-11-16 17:20:00,
2013-11-16 12:25:00,57.5,31.9,30.25,West,281,3.0,6.0,38,0.00,,,0.00,WUHU216DAVISVP2,2013-11-16 17:25:00,
2013-11-16 12:30:00,57.3,31.7,30.25,WNW,288,4.0,6.0,38,0.00,,,0.00,WUHU216DAVISVP2,2013-11-16 17:30:00,
2013-11-16 12:35:00,57.6,32.0,30.25,WNW,294,3.0,6.0,38,0.00,,,0.00,WUHU216DAVISVP2,2013-11-16 17:35:00,
2013-11-16 12:40:00,57.8,32.2,30.25,WNW,298,4.0,7.0,38,0.00,,,0.00,WUHU216DAVISVP2,2013-11-16 17:40:00,
2013-11-16 12:45:00,58.2,31.3,30.25,WNW,294,3.0,7.0,36,0.00,,,0.00,WUHU216DAVISVP2,2013-11-16 17:45:00,
2013-11-16 12:50:00,58.5,29.5,30.25,NW,304,2.0,7.0,33,0.00,,,0.00,WUHU216DAVISVP2,2013-11-16 17:50:00,
2013-11-16 12:55:00,58.9,31.3,30.25,WNW,302,3.0,7.0,35,0.00,,,0.00,WUHU216DAVISVP2,2013-11-16 17:55:00,
2013-11-16 13:00:00,58.7,31.6,30.25,WNW,300,1.0,7.0,36,0.00,,,0.00,WUHU216DAVISVP2,2013-11-16 18:00:00,
2013-11-16 13:05:00,58.8,32.4,30.25,WNW,300,0.0,7.0,37,0.00,,,0.00,WUHU216DAVISVP2,2013-11-16 18:05:00,
2013-11-16 13:10:00,59.1,32.6,30.25,NW,322,0.0,6.0,37,0.00,,,0.00,WUHU216DAVISVP2,2013-11-16 18:10:00,
2013-11-16 13:15:00,59.4,32.2,30.25,WNW,298,5.0,7.0,36,0.00,,,0.00,WUHU216DAVISVP2,2013-11-16 18:15:00,
2013-11-16 13:20:00,59.3,32.8,30.25,WNW,294,3.0,7.0,37,0.00,,,0.00,WUHU216DAVISVP2,2013-11-16 18:20:00,
2013-11-16 13:25:00,59.2,32.0,30.25,WNW,294,4.0,6.0,36,0.00,,,0.00,WUHU216DAVISVP2,2013-11-16 18:25:00,
2013-11-16 13:30:00,59.3,33.5,30.24,WNW,296,2.0,6.0,38,0.00,,,0.00,WUHU216DAVISVP2,2013-11-16 18:30:00,
2013-11-16 13:35:00,59.4,32.9,30.25,NW,308,0.0,9.0,37,0.00,,,0.00,WUHU216DAVISVP2,2013-11-16 18:35:00,
2013-11-16 13:40:00,59.8,32.6,30.24,NW,313,0.0,9.0,36,0.00,,,0.00,WUHU216DAVISVP2,2013-11-16 18:40:00,
2013-11-16 13:45:00,60.2,32.2,30.24,NW,313,1.0,9.0,35,0.00,,,0.00,WUHU216DAVISVP2,2013-11-16 18:45:00,
2013-11-16 13:50:00,60.5,33.2,30.24,ENE,63,3.0,9.0,36,0.00,,,0.00,WUHU216DAVISVP2,2013-11-16 18:50:00,
2013-11-16 13:55:00,60.4,32.4,30.24,ESE,105,0.0,6.0,35,0.00,,,0.00,WUHU216DAVISVP2,2013-11-16 18:55:00,
2013-11-16 14:00:00,60.5,31.8,30.24,ESE,109,2.0,6.0,34,0.00,,,0.00,WUHU216DAVISVP2,2013-11-16 19:00:00,
2013-11-16 14:05:00,60.6,31.9,30.24,SE,126,0.0,6.0,34,0.00,,,0.00,WUHU216DAVISVP2,2013-11-16 19:05:00,
2013-11-16 14:10:00,60.9,31.4,30.24,SE,139,2.0,6.0,33,0.00,,,0.00,WUHU216DAVISVP2,2013-11-16 19:10:00,
2013-11-16 14:15:00,60.8,32.0,30.24,SE,136,0.0,6.0,34,0.00,,,0.00,WUHU216DAVISVP2,2013-11-16 19:15:00,
2013-11-16 14:20:00,60.8,32.2,30.25,SSE,166,5.0,9.0,34,0.00,,,0.00,WUHU216DAVISVP2,2013-11-16 19:20:00,
2013-11-16 14:25:00,60.6,32.6,30.25,SSE,166,1.0,9.0,35,0.00,,,0.00,WUHU216DAVISVP2,2013-11-16 19:25:00,
2013-11-16 14:30:00,60.6,31.9,30.25,SSE,166,0.0,8.0,34,0.00,,,0.00,WUHU216DAVISVP2,2013-11-16 19:30:00,
2013-11-16 14:35:00,60.7,31.9,30.25,SSE,167,0.0,8.0,34,0.00,,,0.00,WUHU216DAVISVP2,2013-11-16 19:35:00,
2013-11-16 14:40:00,60.9,33.0,30.25,SSE,167,3.0,4.0,35,0.00,,,0.00,WUHU216DAVISVP2,2013-11-16 19:40:00,
2013-11-16 14:45:00,61.1,33.0,30.25,SSE,167,3.0,4.0,35,0.00,,,0.00,WUHU216DAVISVP2,2013-11-16 19:45:00,
2013-11-16 14:50:00,60.8,32.0,30.25,SSE,167,0.0,5.0,34,0.00,,,0.00,WUHU216DAVISVP2,2013-11-16 19:50:00,
2013-11-16 14:55:00,60.6,32.6,30.25,SSE,167,0.0,5.0,35,0.00,,,0.00,WUHU216DAVISVP2,2013-11-16 19:55:00,
2013-11-16 15:00:00,60.6,32.8,30.26,SSE,167,0.0,5.0,35,0.00,,,0.00,WUHU216DAVISVP2,2013-11-16 20:00:00,
2013-11-16 15:05:00,60.9,32.3,30.26,SSE,167,3.0,5.0,34,0.00,,,0.00,WUHU216DAVISVP2,2013-11-16 20:05:00,
2013-11-16 15:10:00,60.8,32.0,30.26,SSE,167,0.0,3.0,34,0.00,,,0.00,WUHU216DAVISVP2,2013-11-16 20:10:00,
2013-11-16 15:15:00,60.8,32.8,30.26,SSE,167,0.0,3.0,35,0.00,,,0.00,WUHU216DAVISVP2,2013-11-16 20:15:00,
2013-11-16 15:20:00,60.8,32.8,30.26,SSE,167,0.0,2.0,35,0.00,,,0.00,WUHU216DAVISVP2,2013-11-16 20:20:00,
2013-11-16 15:25:00,60.4,32.4,30.27,SSE,167,0.0,1.0,35,0.00,,,0.00,WUHU216DAVISVP2,2013-11-16 20:25:00,
2013-11-16 15:30:00,59.7,31.8,30.27,SSE,167,3.0,3.0,35,0.00,,,0.00,WUHU216DAVISVP2,2013-11-16 20:30:00,
2013-11-16 15:35:00,59.2,32.0,30.26,SSE,167,0.0,4.0,36,0.00,,,0.00,WUHU216DAVISVP2,2013-11-16 20:35:00,
2013-11-16 15:40:00,58.9,33.1,30.26,SSE,167,0.0,4.0,38,0.00,,,0.00,WUHU216DAVISVP2,2013-11-16 20:40:00,
2013-11-16 15:45:00,58.5,32.8,30.26,SSE,167,0.0,3.0,38,0.00,,,0.00,WUHU216DAVISVP2,2013-11-16 20:45:00,
2013-11-16 15:50:00,58.0,33.0,30.26,SSE,167,0.0,3.0,39,0.00,,,0.00,WUHU216DAVISVP2,2013-11-16 20:50:00,
2013-11-16 15:55:00,57.6,33.3,30.27,SSE,167,0.0,3.0,40,0.00,,,0.00,WUHU216DAVISVP2,2013-11-16 20:55:00,
2013-11-16 16:00:00,57.0,34.0,30.27,SSE,167,0.0,1.0,42,0.00,,,0.00,WUHU216DAVISVP2,2013-11-16 21:00:00,
2013-11-16 16:05:00,56.4,34.0,30.26,SSE,167,0.0,1.0,43,0.00,,,0.00,WUHU216DAVISVP2,2013-11-16 21:05:00,
2013-11-16 16:10:00,55.8,34.2,30.27,SSE,167,0.0,0.0,44,0.00,,,0.00,WUHU216DAVISVP2,2013-11-16 21:10:00,
2013-11-16 16:15:00,55.1,33.6,30.26,SSE,167,0.0,0.0,44,0.00,,,0.00,WUHU216DAVISVP2,2013-11-16 21:15:00,
2013-11-16 16:20:00,54.4,33.5,30.27,SSE,167,0.0,0.0,45,0.00,,,0.00,WUHU216DAVISVP2,2013-11-16 21:20:00,
2013-11-16 16:25:00,53.7,33.4,30.27,SSE,167,0.0,0.0,46,0.00,,,0.00,WUHU216DAVISVP2,2013-11-16 21:25:00,
2013-11-16 16:30:00,52.9,33.2,30.27,SSE,167,0.0,0.0,47,0.00,,,0.00,WUHU216DAVISVP2,2013-11-16 21:30:00,
2013-11-16 16:35:00,52.1,33.5,30.27,SSE,167,0.0,0.0,49,0.00,,,0.00,WUHU216DAVISVP2,2013-11-16 21:35:00,
2013-11-16 16:40:00,51.2,33.2,30.27,SSE,167,0.0,0.0,50,0.00,,,0.00,WUHU216DAVISVP2,2013-11-16 21:40:00,
2013-11-16 16:45:00,50.2,32.8,30.27,SSE,167,0.0,3.0,51,0.00,,,0.00,WUHU216DAVISVP2,2013-11-16 21:45:00,
2013-11-16 16:50:00,49.6,33.2,30.28,SSE,167,0.0,3.0,53,0.00,,,0.00,WUHU216DAVISVP2,2013-11-16 21:50:00,
2013-11-16 16:55:00,48.9,33.0,30.28,SSE,167,0.0,2.0,54,0.00,,,0.00,WUHU216DAVISVP2,2013-11-16 21:55:00,
2013-11-16 17:00:00,48.3,32.9,30.28,SSE,167,0.0,0.0,55,0.00,,,0.00,WUHU216DAVISVP2,2013-11-16 22:00:00,
2013-11-16 17:05:00,47.6,33.2,30.28,SSE,167,0.0,0.0,57,0.00,,,0.00,WUHU216DAVISVP2,2013-11-16 22:05:00,
2013-11-16 17:10:00,47.0,33.0,30.28,SSE,167,0.0,0.0,58,0.00,,,0.00,WUHU216DAVISVP2,2013-11-16 22:10:00,
2013-11-16 17:15:00,46.5,33.0,30.29,SSE,167,0.0,0.0,59,0.00,,,0.00,WUHU216DAVISVP2,2013-11-16 22:15:00,
2013-11-16 17:20:00,46.1,32.6,30.29,SSE,167,0.0,0.0,59,0.00,,,0.00,WUHU216DAVISVP2,2013-11-16 22:20:00,
2013-11-16 17:25:00,45.7,32.7,30.29,SSE,167,0.0,0.0,60,0.00,,,0.00,WUHU216DAVISVP2,2013-11-16 22:25:00,
2013-11-16 17:30:00,45.2,32.6,30.29,SSE,167,0.0,0.0,61,0.00,,,0.00,WUHU216DAVISVP2,2013-11-16 22:30:00,
2013-11-16 17:35:00,44.9,32.8,30.29,SSE,167,0.0,0.0,62,0.00,,,0.00,WUHU216DAVISVP2,2013-11-16 22:35:00,
2013-11-16 17:40:00,44.5,32.4,30.29,SSE,167,0.0,0.0,62,0.00,,,0.00,WUHU216DAVISVP2,2013-11-16 22:40:00,
2013-11-16 17:45:00,44.1,32.4,30.29,SSE,167,0.0,0.0,63,0.00,,,0.00,WUHU216DAVISVP2,2013-11-16 22:45:00,
2013-11-16 17:50:00,43.6,31.9,30.29,SSE,167,0.0,0.0,63,0.00,,,0.00,WUHU216DAVISVP2,2013-11-16 22:50:00,
2013-11-16 17:55:00,43.3,32.0,30.29,SSE,167,0.0,0.0,64,0.00,,,0.00,WUHU216DAVISVP2,2013-11-16 22:55:00,
2013-11-16 18:00:00,42.8,31.9,30.29,SSE,167,0.0,0.0,65,0.00,,,0.00,WUHU216DAVISVP2,2013-11-16 23:00:00,
2013-11-16 18:05:00,42.5,31.6,30.29,SSE,167,0.0,0.0,65,0.00,,,0.00,WUHU216DAVISVP2,2013-11-16 23:05:00,
2013-11-16 18:10:00,42.1,31.2,30.29,SSE,167,0.0,0.0,65,0.00,,,0.00,WUHU216DAVISVP2,2013-11-16 23:10:00,
2013-11-16 18:15:00,41.8,31.3,30.29,SSE,167,0.0,0.0,66,0.00,,,0.00,WUHU216DAVISVP2,2013-11-16 23:15:00,
2013-11-16 18:20:00,41.6,31.1,30.29,SSE,167,0.0,0.0,66,0.00,,,0.00,WUHU216DAVISVP2,2013-11-16 23:20:00,
2013-11-16 18:25:00,41.4,30.9,30.29,SSE,167,0.0,0.0,66,0.00,,,0.00,WUHU216DAVISVP2,2013-11-16 23:25:00,
2013-11-16 18:30:00,41.2,31.1,30.29,SSE,167,0.0,0.0,67,0.00,,,0.00,WUHU216DAVISVP2,2013-11-16 23:30:00,
2013-11-16 18:35:00,40.9,30.9,30.29,SSE,167,0.0,0.0,67,0.00,,,0.00,WUHU216DAVISVP2,2013-11-16 23:35:00,
2013-11-16 18:40:00,40.6,30.6,30.29,SSE,167,0.0,0.0,67,0.00,,,0.00,WUHU216DAVISVP2,2013-11-16 23:40:00,
2013-11-16 18:45:00,40.3,30.7,30.29,SSE,167,0.0,0.0,68,0.00,,,0.00,WUHU216DAVISVP2,2013-11-16 23:45:00,
2013-11-16 18:50:00,40.0,30.7,30.29,SSE,167,0.0,0.0,69,0.00,,,0.00,WUHU216DAVISVP2,2013-11-16 23:50:00,
2013-11-16 18:55:00,39.7,30.8,30.29,SSE,167,0.0,0.0,70,0.00,,,0.00,WUHU216DAVISVP2,2013-11-16 23:55:00,
2013-11-16 19:00:00,39.3,30.4,30.29,SSE,167,0.0,0.0,70,0.00,,,0.00,WUHU216DAVISVP2,2013-11-17 00:00:00,
2013-11-16 19:05:00,39.1,30.6,30.29,SSE,167,0.0,0.0,71,0.00,,,0.00,WUHU216DAVISVP2,2013-11-17 00:05:00,
2013-11-16 19:10:00,38.8,30.2,30.30,SSE,167,0.0,0.0,71,0.00,,,0.00,WUHU216DAVISVP2,2013-11-17 00:10:00,
2013-11-16 19:15:00,38.6,30.4,30.30,SSE,167,0.0,0.0,72,0.00,,,0.00,WUHU216DAVISVP2,2013-11-17 00:15:00,
2013-11-16 19:20:00,38.4,30.2,30.30,SSE,167,0.0,0.0,72,0.00,,,0.00,WUHU216DAVISVP2,2013-11-17 00:20:00,
2013-11-16 19:25:00,38.1,30.3,30.29,SSE,167,0.0,0.0,73,0.00,,,0.00,WUHU216DAVISVP2,2013-11-17 00:25:00,
2013-11-16 19:30:00,37.9,30.4,30.29,SSE,167,0.0,0.0,74,0.00,,,0.00,WUHU216DAVISVP2,2013-11-17 00:30:00,
2013-11-16 19:35:00,37.7,30.2,30.29,SSE,167,0.0,0.0,74,0.00,,,0.00,WUHU216DAVISVP2,2013-11-17 00:35:00,
2013-11-16 19:40:00,37.6,30.1,30.29,SSE,167,0.0,0.0,74,0.00,,,0.00,WUHU216DAVISVP2,2013-11-17 00:40:00,
2013-11-16 19:45:00,37.4,30.2,30.29,SSE,167,0.0,0.0,75,0.00,,,0.00,WUHU216DAVISVP2,2013-11-17 00:45:00,
2013-11-16 19:50:00,37.2,30.0,30.29,SSE,167,0.0,0.0,75,0.00,,,0.00,WUHU216DAVISVP2,2013-11-17 00:50:00,
2013-11-16 19:55:00,37.0,30.2,30.30,SSE,167,0.0,0.0,76,0.00,,,0.00,WUHU216DAVISVP2,2013-11-17 00:55:00,
2013-11-16 20:00:00,36.8,30.3,30.30,SSE,167,0.0,0.0,77,0.00,,,0.00,WUHU216DAVISVP2,2013-11-17 01:00:00,
2013-11-16 20:05:00,36.8,30.3,30.31,SSE,167,0.0,0.0,77,0.00,,,0.00,WUHU216DAVISVP2,2013-11-17 01:05:00,
2013-11-16 20:10:00,36.7,30.2,30.31,SSE,167,0.0,0.0,77,0.00,,,0.00,WUHU216DAVISVP2,2013-11-17 01:10:00,
2013-11-16 20:15:00,36.6,29.8,30.31,SSE,167,0.0,0.0,76,0.00,,,0.00,WUHU216DAVISVP2,2013-11-17 01:15:00,
2013-11-16 20:20:00,36.3,29.8,30.31,SSE,167,0.0,0.0,77,0.00,,,0.00,WUHU216DAVISVP2,2013-11-17 01:20:00,
2013-11-16 20:25:00,36.1,29.6,30.31,SSE,167,0.0,0.0,77,0.00,,,0.00,WUHU216DAVISVP2,2013-11-17 01:25:00,
2013-11-16 20:30:00,35.9,29.4,30.31,SSE,167,0.0,0.0,77,0.00,,,0.00,WUHU216DAVISVP2,2013-11-17 01:30:00,
2013-11-16 20:35:00,35.5,29.0,30.31,SSE,167,0.0,0.0,77,0.00,,,0.00,WUHU216DAVISVP2,2013-11-17 01:35:00,
2013-11-16 20:40:00,35.2,29.1,30.31,SSE,167,0.0,0.0,78,0.00,,,0.00,WUHU216DAVISVP2,2013-11-17 01:40:00,
2013-11-16 20:45:00,35.0,29.2,30.31,SSE,167,0.0,0.0,79,0.00,,,0.00,WUHU216DAVISVP2,2013-11-17 01:45:00,
2013-11-16 20:50:00,34.9,29.4,30.31,SSE,167,0.0,0.0,80,0.00,,,0.00,WUHU216DAVISVP2,2013-11-17 01:50:00,
2013-11-16 20:55:00,34.8,29.3,30.30,SSE,167,0.0,0.0,80,0.00,,,0.00,WUHU216DAVISVP2,2013-11-17 01:55:00,
2013-11-16 21:00:00,34.7,29.2,30.31,SSE,167,0.0,0.0,80,0.00,,,0.00,WUHU216DAVISVP2,2013-11-17 02:00:00,
2013-11-16 21:05:00,34.6,29.1,30.31,SSE,167,0.0,0.0,80,0.00,,,0.00,WUHU216DAVISVP2,2013-11-17 02:05:00,
2013-11-16 21:10:00,34.3,28.8,30.30,SSE,167,0.0,0.0,80,0.00,,,0.00,WUHU216DAVISVP2,2013-11-17 02:10:00,
2013-11-16 21:15:00,34.2,29.0,30.30,SSE,167,0.0,0.0,81,0.00,,,0.00,WUHU216DAVISVP2,2013-11-17 02:15:00,
2013-11-16 21:20:00,34.0,28.8,30.31,SSE,167,0.0,0.0,81,0.00,,,0.00,WUHU216DAVISVP2,2013-11-17 02:20:00,
2013-11-16 21:25:00,33.9,29.0,30.30,SSE,167,0.0,0.0,82,0.00,,,0.00,WUHU216DAVISVP2,2013-11-17 02:25:00,
2013-11-16 21:30:00,33.8,28.9,30.31,SSE,167,0.0,0.0,82,0.00,,,0.00,WUHU216DAVISVP2,2013-11-17 02:30:00,
2013-11-16 21:35:00,33.6,28.4,30.31,SSE,167,0.0,0.0,81,0.00,,,0.00,WUHU216DAVISVP2,2013-11-17 02:35:00,
2013-11-16 21:40:00,33.4,28.5,30.30,SSE,167,0.0,0.0,82,0.00,,,0.00,WUHU216DAVISVP2,2013-11-17 02:40:00,
2013-11-16 21:45:00,33.2,28.3,30.30,SSE,167,0.0,0.0,82,0.00,,,0.00,WUHU216DAVISVP2,2013-11-17 02:45:00,
2013-11-16 21:50:00,33.0,28.1,30.30,SSE,167,0.0,0.0,82,0.00,,,0.00,WUHU216DAVISVP2,2013-11-17 02:50:00,
2013-11-16 21:55:00,32.8,27.9,30.30,SSE,167,0.0,0.0,82,0.00,,,0.00,WUHU216DAVISVP2,2013-11-17 02:55:00,
2013-11-16 22:00:00,32.7,28.1,30.30,SSE,167,0.0,0.0,83,0.00,,,0.00,WUHU216DAVISVP2,2013-11-17 03:00:00,
2013-11-16 22:05:00,32.5,28.2,30.30,SSE,167,0.0,0.0,84,0.00,,,0.00,WUHU216DAVISVP2,2013-11-17 03:05:00,
2013-11-16 22:10:00,32.4,28.1,30.30,SSE,167,0.0,0.0,84,0.00,,,0.00,WUHU216DAVISVP2,2013-11-17 03:10:00,
2013-11-16 22:15:00,32.4,28.1,30.30,SSE,167,0.0,0.0,84,0.00,,,0.00,WUHU216DAVISVP2,2013-11-17 03:15:00,
2013-11-16 22:20:00,32.3,28.0,30.30,SSE,167,0.0,0.0,84,0.00,,,0.00,WUHU216DAVISVP2,2013-11-17 03:20:00,
2013-11-16 22:25:00,32.2,27.9,30.30,SSE,167,0.0,0.0,84,0.00,,,0.00,WUHU216DAVISVP2,2013-11-17 03:25:00,
2013-11-16 22:30:00,32.0,27.7,30.30,SSE,167,0.0,0.0,84,0.00,,,0.00,WUHU216DAVISVP2,2013-11-17 03:30:00,
2013-11-16 22:35:00,31.8,27.8,30.30,SSE,167,0.0,0.0,85,0.00,,,0.00,WUHU216DAVISVP2,2013-11-17 03:35:00,
2013-11-16 22:40:00,31.7,28.0,30.30,SSE,167,0.0,0.0,86,0.00,,,0.00,WUHU216DAVISVP2,2013-11-17 03:40:00,
2013-11-16 22:45:00,31.7,28.3,30.31,SSE,167,0.0,0.0,87,0.00,,,0.00,WUHU216DAVISVP2,2013-11-17 03:45:00,
2013-11-16 22:50:00,31.6,28.2,30.31,SSE,167,0.0,0.0,87,0.00,,,0.00,WUHU216DAVISVP2,2013-11-17 03:50:00,
2013-11-16 22:55:00,31.6,28.2,30.31,SSE,167,0.0,0.0,87,0.00,,,0.00,WUHU216DAVISVP2,2013-11-17 03:55:00,
2013-11-16 23:00:00,31.5,28.1,30.32,SSE,167,0.0,0.0,87,0.00,,,0.00,WUHU216DAVISVP2,2013-11-17 04:00:00,
2013-11-16 23:05:00,31.4,27.7,30.31,SSE,167,0.0,0.0,86,0.00,,,0.00,WUHU216DAVISVP2,2013-11-17 04:05:00,
2013-11-16 23:10:00,31.2,27.5,30.31,SSE,167,0.0,0.0,86,0.00,,,0.00,WUHU216DAVISVP2,2013-11-17 04:10:00,
2013-11-16 23:15:00,31.0,27.3,30.31,SSE,167,0.0,0.0,86,0.00,,,0.00,WUHU216DAVISVP2,2013-11-17 04:15:00,
2013-11-16 23:20:00,30.7,27.0,30.31,SSE,167,0.0,0.0,86,0.00,,,0.00,WUHU216DAVISVP2,2013-11-17 04:20:00,
2013-11-16 23:25:00,30.5,26.8,30.31,SSE,167,0.0,0.0,86,0.00,,,0.00,WUHU216DAVISVP2,2013-11-17 04:25:00,
2013-11-16 23:30:00,30.3,26.6,30.31,SSE,167,0.0,0.0,86,0.00,,,0.00,WUHU216DAVISVP2,2013-11-17 04:30:00,
2013-11-16 23:35:00,30.3,26.9,30.31,SSE,167,0.0,0.0,87,0.00,,,0.00,WUHU216DAVISVP2,2013-11-17 04:35:00,
2013-11-16 23:40:00,30.2,26.8,30.32,SSE,167,0.0,0.0,87,0.00,,,0.00,WUHU216DAVISVP2,2013-11-17 04:40:00,
2013-11-16 23:45:00,30.1,26.9,30.32,SSE,167,0.0,0.0,88,0.00,,,0.00,WUHU216DAVISVP2,2013-11-17 04:45:00,
2013-11-16 23:50:00,29.9,26.5,30.31,SSE,167,0.0,0.0,87,0.00,,,0.00,WUHU216DAVISVP2,2013-11-17 04:50:00,
2013-11-16 23:55:00,29.8,26.6,30.31,SSE,167,0.0,0.0,88,0.00,,,0.00,WUHU216DAVISVP2,2013-11-17 04:55:00,